GW4797 Weather Reports


time (UTC)temp
F
wind
direction
speed
knots
gust
knots
rain 1hr
in
rain 24hr
in
rain mn
in
humidity
%
barometer
mb
20260510045008 52 273 0.0 1.7 0.02 0.44 0.02 90 1011.9
20260510044529 52 273 0.0 3.5 0.02 0.45 0.02 89 1012.0
20260510044002 52 277 1.7 3.5 0.02 0.45 0.02 89 1012.1
20260510043504 52 243 0.0 1.7 0.01 0.44 0.01 90 1012.3
20260510043008 52 243 0.0 2.6 0.01 0.44 0.01 89 1012.1
20260510042503 52 244 0.0 2.6 0.00 0.43 0.00 90 1012.2
20260510042004 52 294 0.9 3.5 0.00 0.43 0.00 90 1012.0
20260510041507 51 352 2.6 3.5 0.00 0.43 0.00 91 1011.8
20260510041008 51 321 0.9 2.6 0.00 0.43 0.00 94 1011.8
20260510040504 51 330 0.9 2.6 0.00 0.43 0.00 95 1011.9
20260510040015 51 352 1.7 8.7 0.00 0.43 0.00 95 1011.9
20260510035504 51 321 1.7 12.2 0.00 0.43 0.43 94 1012.2
20260510035006 51 289 7.8 12.2 0.00 0.43 0.43 94 1012.2
20260510034521 51 298 0.9 2.6 0.00 0.43 0.43 95 1011.1
20260510034007 51 110 0.9 1.7 0.00 0.44 0.43 95 1010.7
20260510033511 51 91 0.9 3.5 0.00 0.44 0.43 94 1010.8
20260510033024 51 104 1.7 3.5 0.00 0.44 0.43 94 1010.8
20260510032504 51 88 0.9 1.7 0.00 0.45 0.43 94 1010.7
20260510032004 51 84 0.9 1.7 0.00 0.45 0.43 94 1010.7
20260510031508 51 59 0.9 1.7 0.00 0.45 0.43 94 1010.8
20260510031004 51 59 0.0 1.7 0.00 0.45 0.43 94 1010.7
20260510030506 51 59 0.9 1.7 0.00 0.45 0.43 93 1010.7
20260510030010 51 59 0.9 1.7 0.00 0.45 0.43 93 1010.6
20260510025506 51 59 0.0 1.7 0.00 0.45 0.43 93 1010.3
20260510025011 51 48 0.0 1.7 0.00 0.45 0.43 93 1010.3
20260510024519 52 59 0.9 3.5 0.00 0.46 0.43 93 1010.1
20260510024006 52 120 0.9 3.5 0.00 0.47 0.43 93 1009.7
20260510023510 52 118 1.7 2.6 0.00 0.48 0.43 93 1009.8
20260510023020 52 119 0.9 2.6 0.00 0.48 0.43 92 1009.8
20260510022511 52 98 0.9 4.3 0.00 0.48 0.43 92 1009.8
20260510022013 52 98 1.7 4.3 0.00 0.48 0.43 92 1009.8
20260510021528 53 137 1.7 3.5 0.00 0.48 0.43 92 1009.9
20260510021004 53 101 1.7 3.5 0.00 0.48 0.43 92 1010.0
20260510020504 53 71 1.7 3.5 0.00 0.48 0.43 93 1010.0
20260510020008 53 91 1.7 3.5 0.00 0.48 0.43 92 1010.0
20260510015505 53 103 1.7 3.5 0.00 0.48 0.43 93 1010.0
20260510015005 53 138 1.7 3.5 0.00 0.48 0.43 93 1010.0
20260510014515 52 103 1.7 2.6 0.00 0.48 0.43 94 1009.9
20260510014006 52 126 0.9 3.5 0.00 0.48 0.43 94 1009.9
20260510013508 52 130 1.7 3.5 0.00 0.48 0.43 95 1009.8
20260510013024 52 128 1.7 3.5 0.00 0.48 0.43 94 1009.8
20260510012507 52 113 0.9 3.5 0.00 0.48 0.43 94 1009.6
20260510012010 52 96 0.9 2.6 0.00 0.48 0.43 94 1009.6
20260510011525 52 123 0.9 1.7 0.00 0.48 0.43 94 1009.6
20260510011012 52 98 0.9 1.7 0.00 0.48 0.43 94 1009.5
20260510010510 52 106 0.9 3.5 0.00 0.48 0.43 94 1009.4
20260510010006 52 132 0.0 3.5 0.00 0.48 0.43 94 1009.3
20260510005503 52 91 0.9 3.5 0.00 0.48 0.43 93 1009.2
20260510005008 52 108 0.9 2.6 0.00 0.48 0.43 93 1009.2
20260510004511 53 126 0.9 2.6 0.00 0.48 0.43 93 1009.2
20260510004008 53 86 0.9 3.5 0.00 0.48 0.43 93 1009.2
20260510003508 53 112 0.9 4.3 0.00 0.48 0.43 93 1009.1
20260510003024 53 131 1.7 4.3 0.00 0.48 0.43 93 1009.0
20260510002506 53 105 0.9 3.5 0.00 0.48 0.43 93 1008.9
20260510002010 53 113 0.9 3.5 0.00 0.48 0.43 93 1008.9
20260510001521 53 138 1.7 2.6 0.00 0.48 0.43 93 1008.9
20260510001011 53 127 0.9 1.7 0.00 0.48 0.43 92 1008.8
20260510000510 54 128 0.0 1.7 0.00 0.48 0.43 91 1008.7
20260510000027 54 128 0.9 1.7 0.00 0.48 0.43 91 1008.7
20260509235508 55 113 0.9 1.7 0.00 0.48 0.43 90 1008.6
20260509235012 55 127 0.9 2.6 0.00 0.48 0.43 90 1008.6
20260509234514 56 140 0.0 3.5 0.00 0.48 0.43 89 1008.5
20260509234005 56 104 1.7 5.2 0.00 0.48 0.43 88 1008.5
20260509233504 57 121 1.7 5.2 0.00 0.48 0.43 88 1008.5
20260509233023 57 158 0.9 2.6 0.00 0.48 0.43 88 1008.5
20260509232512 57 128 0.9 2.6 0.00 0.48 0.43 88 1008.5
20260509232006 57 85 0.9 3.5 0.00 0.48 0.43 88 1008.5
20260509231519 57 146 0.9 3.5 0.00 0.48 0.43 88 1008.5
20260509231007 57 136 0.9 2.6 0.00 0.48 0.43 89 1008.5
20260509230510 56 145 0.9 2.6 0.00 0.48 0.43 89 1008.5
20260509230024 56 101 0.9 1.7 0.00 0.48 0.43 89 1008.6
20260509225512 56 161 0.9 2.6 0.00 0.48 0.43 89 1008.5
20260509225014 57 136 0.9 2.6 0.00 0.48 0.43 87 1008.6
20260509224531 57 155 0.9 3.5 0.00 0.49 0.43 87 1008.5
20260509224008 57 139 1.7 3.5 0.00 0.49 0.43 87 1008.5
20260509223512 57 128 0.0 3.5 0.00 0.49 0.43 88 1008.6
20260509223015 57 149 0.9 2.6 0.00 0.49 0.43 87 1008.6
20260509222504 57 168 0.9 3.5 0.00 0.49 0.43 88 1008.6
20260509222005 57 155 0.9 4.3 0.00 0.50 0.43 87 1008.6
20260509221520 58 123 1.7 5.2 0.00 0.50 0.43 86 1008.6
20260509221011 58 163 2.6 5.2 0.00 0.51 0.43 86 1008.4
20260509220515 58 113 1.7 4.3 0.00 0.51 0.43 87 1008.6
20260509220028 58 117 1.7 3.5 0.00 0.51 0.43 86 1008.8
20260509215507 58 163 0.0 4.3 0.00 0.51 0.43 85 1008.9
20260509215012 58 267 1.7 4.3 0.00 0.51 0.43 85 1008.9
20260509214525 58 252 0.9 3.5 0.00 0.51 0.43 85 1008.8
20260509214012 58 204 0.9 3.5 0.00 0.51 0.43 86 1008.7
20260509213512 57 196 0.9 3.5 0.00 0.51 0.43 87 1008.7
20260509213030 57 176 0.9 5.2 0.00 0.51 0.43 89 1008.8
20260509212508 56 201 1.7 6.1 0.00 0.51 0.43 88 1009.0
20260509212010 56 192 1.7 6.1 0.00 0.51 0.43 88 1009.1
20260509211518 56 173 1.7 4.3 0.00 0.51 0.43 88 1009.1
20260509211006 56 212 1.7 5.2 0.01 0.51 0.43 89 1009.1
20260509210511 56 187 2.6 5.2 0.01 0.51 0.43 90 1009.1
20260509210004 56 202 1.7 3.5 0.01 0.51 0.43 90 1009.1
20260509205503 56 246 1.7 4.3 0.01 0.51 0.43 91 1009.2
20260509205003 55 151 1.7 4.3 0.01 0.51 0.43 91 1009.1
20260509204504 55 192 1.7 3.5 0.01 0.51 0.43 91 1009.2
20260509204007 54 241 0.9 3.5 0.01 0.51 0.43 91 1009.2
20260509203506 54 226 1.7 2.6 0.01 0.51 0.43 92 1009.3
20260509203014 54 213 1.7 2.6 0.02 0.51 0.43 92 1009.3
20260509202505 54 214 0.9 5.2 0.02 0.51 0.43 93 1009.3
20260509202008 54 202 0.9 5.2 0.03 0.51 0.43 93 1009.3
20260509201514 53 240 2.6 5.2 0.03 0.51 0.43 93 1009.4
20260509201004 53 182 1.7 5.2 0.02 0.50 0.42 93 1009.5
20260509200506 53 171 1.7 4.3 0.02 0.50 0.42 93 1009.6
20260509200018 53 146 1.7 6.1 0.02 0.50 0.42 93 1009.6
20260509195513 53 207 2.6 6.1 0.02 0.50 0.42 93 1009.7
20260509195003 53 221 1.7 7.8 0.02 0.50 0.42 93 1009.7
20260509194505 53 206 2.6 7.8 0.02 0.50 0.42 93 1009.7
20260509194005 53 179 0.9 5.2 0.02 0.50 0.42 93 1009.8
20260509193503 53 256 1.7 3.5 0.02 0.50 0.42 93 1009.9
20260509193008 53 208 0.9 3.5 0.01 0.49 0.41 94 1009.9
20260509192503 52 110 0.9 5.2 0.01 0.49 0.41 94 1009.8
20260509192006 52 192 0.9 5.2 0.00 0.48 0.40 93 1009.9
20260509191516 52 147 1.7 4.3 0.01 0.48 0.40 94 1009.9
20260509191008 52 145 0.9 4.3 0.02 0.48 0.40 94 1009.9
20260509190506 52 138 1.7 5.2 0.02 0.48 0.40 94 1009.9
20260509190017 52 174 1.7 5.2 0.03 0.48 0.40 94 1009.9
20260509185507 52 132 0.9 4.3 0.03 0.48 0.40 94 1009.9
20260509185014 52 130 1.7 4.3 0.03 0.48 0.40 94 1009.9
20260509184530 52 178 1.7 6.1 0.03 0.48 0.40 94 1009.9
20260509184011 52 192 0.9 6.1 0.03 0.48 0.40 95 1009.9
20260509183505 52 202 1.7 5.2 0.04 0.48 0.40 95 1009.9
20260509183013 51 171 1.7 5.2 0.04 0.48 0.40 95 1010.0
20260509182503 51 184 1.7 6.1 0.04 0.48 0.40 95 1010.0
20260509182005 51 138 1.7 6.1 0.04 0.48 0.40 95 1009.9
20260509181509 51 140 1.7 6.1 0.04 0.47 0.39 95 1009.9
20260509181004 51 142 2.6 5.2 0.03 0.46 0.38 95 1010.0
20260509180507 51 150 1.7 4.3 0.03 0.46 0.38 95 1010.0
20260509180015 51 96 1.7 4.3 0.03 0.45 0.37 95 1010.0
20260509175508 51 146 1.7 4.3 0.04 0.45 0.37 95 1009.9
20260509175008 51 146 0.9 5.2 0.04 0.45 0.37 95 1009.9
20260509174519 51 163 1.7 5.2 0.05 0.45 0.37 95 1009.9
20260509174006 51 145 1.7 6.1 0.06 0.45 0.37 95 1010.0
20260509173511 51 108 0.9 6.1 0.06 0.44 0.36 95 1009.9
20260509173024 51 82 1.7 4.3 0.07 0.44 0.36 95 1009.9
20260509172512 50 128 1.7 3.5 0.07 0.44 0.36 95 1009.9
20260509172003 50 150 1.7 3.5 0.07 0.44 0.36 95 1009.9
20260509171508 50 163 0.9 6.1 0.07 0.43 0.35 95 1010.0
20260509171003 50 140 2.6 7.0 0.07 0.43 0.35 95 1010.0
20260509170505 50 173 0.9 7.0 0.08 0.43 0.35 95 1010.0
20260509170014 50 157 1.7 6.1 0.07 0.42 0.34 95 1010.0
20260509165504 50 144 1.7 7.0 0.06 0.41 0.33 95 1009.9
20260509165003 50 96 0.9 7.0 0.06 0.41 0.33 95 1009.9
20260509164519 50 136 1.7 6.1 0.05 0.40 0.32 95 1009.9
20260509164006 50 161 1.7 6.1 0.05 0.39 0.31 95 1009.9
20260509163513 50 163 1.7 4.3 0.04 0.38 0.30 95 1009.9
20260509163021 50 155 0.9 4.3 0.03 0.37 0.29 95 1010.0
20260509162512 50 84 1.7 3.5 0.03 0.37 0.29 95 1010.0
20260509162013 50 130 1.7 3.5 0.03 0.37 0.29 95 1010.1
20260509161526 50 147 0.9 5.2 0.03 0.36 0.28 95 1010.1
20260509161014 50 157 1.7 5.2 0.03 0.36 0.28 95 1010.0
20260509160503 49 137 0.9 3.5 0.02 0.35 0.27 95 1010.1
20260509160008 49 155 0.9 4.3 0.02 0.35 0.27 95 1010.1
20260509155506 49 153 1.7 4.3 0.03 0.35 0.27 95 1010.2
20260509155004 49 80 0.9 4.3 0.03 0.35 0.27 95 1010.3
20260509154521 49 142 0.9 4.3 0.04 0.35 0.27 95 1010.2
20260509154009 49 121 0.9 3.5 0.03 0.34 0.26 95 1010.3
20260509153508 49 153 0.9 3.5 0.04 0.34 0.26 95 1010.3
20260509153020 49 85 0.9 3.5 0.05 0.34 0.26 95 1010.4
20260509152507 49 130 1.7 2.6 0.05 0.34 0.26 95 1010.5
20260509152010 49 154 0.0 4.3 0.06 0.34 0.26 95 1010.5
20260509151524 49 106 1.7 4.3 0.06 0.33 0.25 95 1010.6
20260509151011 49 124 0.9 3.5 0.06 0.33 0.25 95 1010.6
20260509150512 49 100 0.9 3.5 0.07 0.33 0.25 95 1010.6
20260509150029 49 173 0.9 3.5 0.07 0.33 0.25 95 1010.6
20260509145511 49 76 0.9 3.5 0.07 0.32 0.24 95 1010.6
20260509145007 49 173 0.9 4.3 0.08 0.32 0.24 94 1010.6
20260509144519 49 177 0.9 3.5 0.07 0.31 0.23 94 1010.7
20260509144004 49 184 0.9 3.5 0.08 0.31 0.23 94 1010.6
20260509143504 49 167 0.9 3.5 0.07 0.30 0.22 94 1010.7
20260509143021 49 165 0.9 4.3 0.06 0.29 0.21 95 1010.7
20260509142508 49 180 0.9 4.3 0.07 0.29 0.21 94 1010.7
20260509142009 49 177 0.9 2.6 0.06 0.28 0.20 94 1010.7
20260509141524 49 105 0.9 3.5 0.05 0.27 0.19 94 1010.7
20260509141010 49 181 0.0 3.5 0.05 0.27 0.19 94 1010.7
20260509140513 49 137 0.0 2.6 0.05 0.26 0.18 94 1010.7
20260509140027 49 119 0.9 2.6 0.05 0.26 0.18 95 1010.7
20260509135510 49 115 0.0 1.7 0.04 0.25 0.17 95 1010.8
20260509135008 49 134 0.9 1.7 0.03 0.24 0.16 94 1010.8
20260509134530 49 120 0.0 1.7 0.03 0.24 0.16 95 1010.8
20260509134013 49 109 0.0 2.6 0.03 0.23 0.15 95 1011.0
20260509133512 49 47 0.9 2.6 0.03 0.23 0.15 95 1011.0
20260509133017 49 153 0.0 1.7 0.03 0.23 0.15 95 1011.1
20260509132508 48 144 0.0 1.7 0.02 0.22 0.14 95 1011.1
20260509132011 48 87 0.9 2.6 0.02 0.22 0.14 95 1011.1
20260509131522 48 83 0.9 2.6 0.02 0.22 0.14 95 1011.1
20260509131011 48 122 0.9 2.6 0.03 0.22 0.14 95 1011.1
20260509130511 48 97 0.9 2.6 0.02 0.21 0.13 95 1011.1
20260509130047 48 115 0.0 2.6 0.02 0.21 0.13 95 1011.1
20260509125510 48 148 0.0 2.6 0.02 0.21 0.13 95 1011.1
20260509125009 48 106 0.9 2.6 0.02 0.21 0.13 94 1011.1
20260509124531 48 117 0.9 2.6 0.02 0.21 0.13 94 1011.2
20260509124008 48 134 0.0 1.7 0.01 0.20 0.12 95 1011.2
20260509123513 48 123 0.0 1.7 0.01 0.20 0.12 95 1011.2
20260509123028 48 119 0.0 1.7 0.01 0.20 0.12 95 1011.2
20260509122508 48 118 0.0 1.7 0.01 0.20 0.12 95 1011.1
20260509122010 48 117 0.0 1.7 0.02 0.20 0.12 95 1011.1
20260509121518 48 117 0.0 1.7 0.02 0.20 0.12 95 1011.1
20260509121008 48 117 0.0 1.7 0.01 0.19 0.11 95 1011.1
20260509120503 48 118 0.0 1.7 0.01 0.19 0.11 95 1011.2
20260509120005 48 83 0.9 1.7 0.01 0.19 0.11 95 1011.2
20260509115503 48 104 0.0 1.7 0.01 0.19 0.11 95 1011.1
20260509115003 48 154 0.0 1.7 0.01 0.19 0.11 95 1011.1
20260509114507 48 171 0.0 1.7 0.01 0.19 0.11 95 1011.1
20260509114004 48 171 0.0 1.7 0.01 0.19 0.11 95 1011.1
20260509113504 48 205 0.0 1.7 0.02 0.19 0.11 95 1011.1
20260509113012 47 225 0.0 1.7 0.02 0.19 0.11 95 1011.0
20260509112504 47 225 0.0 1.7 0.02 0.19 0.11 95 1011.1
20260509112004 47 244 0.0 1.7 0.01 0.18 0.10 95 1011.1
20260509111516 47 244 0.0 1.7 0.01 0.18 0.10 95 1011.1
20260509111004 47 244 0.0 1.7 0.01 0.18 0.10 95 1011.1
20260509110509 47 250 0.0 1.7 0.01 0.18 0.10 95 1011.1
20260509110021 47 250 0.0 1.7 0.01 0.18 0.10 95 1011.1
20260509105508 47 250 0.0 1.7 0.01 0.18 0.10 95 1011.2
20260509105003 47 250 0.0 1.7 0.01 0.18 0.10 95 1011.2
20260509104504 47 284 0.0 1.7 0.01 0.18 0.10 95 1011.2
20260509104003 47 284 0.0 1.7 0.01 0.18 0.10 95 1011.1
20260509103505 47 284 0.9 1.7 0.00 0.17 0.09 95 1011.1
20260509103008 47 284 0.0 1.7 0.00 0.17 0.09 95 1011.0
20260509102505 47 284 0.0 1.7 0.00 0.17 0.09 95 1011.0
20260509102007 47 284 0.0 1.7 0.00 0.17 0.09 95 1011.1
20260509101515 47 284 0.0 1.7 0.00 0.17 0.09 95 1011.0
20260509101006 47 279 0.0 1.7 0.00 0.17 0.09 95 1011.0
20260509100508 47 263 0.0 1.7 0.00 0.17 0.09 95 1011.0
20260509100022 47 89 0.0 1.7 0.00 0.17 0.09 95 1011.0
20260509095508 47 169 0.0 1.7 0.00 0.17 0.09 95 1011.1
20260509095014 47 180 0.0 1.7 0.00 0.17 0.09 95 1011.1
20260509094519 47 156 0.9 1.7 0.00 0.17 0.09 95 1011.1
20260509094004 47 208 0.0 1.7 0.01 0.17 0.09 95 1011.1
20260509093503 47 104 0.0 1.7 0.01 0.17 0.09 95 1011.2
20260509093004 47 104 0.9 1.7 0.01 0.17 0.09 95 1011.4
20260509092507 47 244 0.0 1.7 0.01 0.17 0.09 95 1011.3
20260509092003 47 172 0.0 2.6 0.01 0.17 0.09 95 1011.5
20260509091508 47 183 0.9 2.6 0.01 0.17 0.09 95 1011.5
20260509091003 47 205 0.0 1.7 0.01 0.17 0.09 95 1011.4
20260509090016 47 91 0.9 1.7 0.02 0.17 0.09 95 1011.4
20260509085506 47 47 0.0 1.7 0.02 0.17 0.09 95 1011.4
20260509085009 47 109 0.0 1.7 0.02 0.17 0.09 95 1011.4
20260509084526 47 192 0.0 1.7 0.02 0.17 0.09 95 1011.4
20260509084011 47 154 0.9 1.7 0.01 0.16 0.08 95 1011.3
20260509083507 47 106 0.0 1.7 0.01 0.16 0.08 95 1011.2
20260509083033 47 161 0.0 1.7 0.01 0.16 0.08 95 1011.4
20260509082503 47 161 0.0 1.7 0.01 0.16 0.08 95 1011.3
20260509082004 47 161 0.0 1.7 0.01 0.16 0.08 95 1011.3
20260509081513 47 161 0.0 1.7 0.01 0.16 0.08 95 1011.3
20260509081004 47 161 0.0 1.7 0.02 0.16 0.08 95 1011.3
20260509080504 47 146 0.0 1.7 0.01 0.15 0.07 95 1011.2
20260509080012 47 114 0.0 1.7 0.01 0.15 0.07 95 1011.2
20260509075507 47 114 0.0 1.7 0.01 0.15 0.07 95 1011.4
20260509075005 47 109 0.0 1.7 0.01 0.15 0.07 95 1011.4
20260509074519 47 109 0.0 1.7 0.01 0.15 0.07 94 1011.5
20260509074008 47 109 0.0 1.7 0.02 0.15 0.07 94 1011.5
20260509073511 47 109 0.0 1.7 0.02 0.15 0.07 94 1011.5
20260509073024 47 109 0.0 1.7 0.02 0.15 0.07 94 1011.5
20260509072509 47 109 0.9 1.7 0.03 0.15 0.07 94 1011.6
20260509072010 48 109 0.9 1.7 0.04 0.15 0.07 94 1011.7
20260509071524 48 109 0.0 1.7 0.04 0.15 0.07 94 1011.9
20260509071005 48 109 0.0 1.7 0.03 0.14 0.06 94 1012.0
20260509070504 48 109 0.0 1.7 0.04 0.14 0.06 94 1012.0
20260509070012 48 109 0.0 1.7 0.04 0.14 0.06 94 1012.1
20260509065504 48 109 0.0 1.7 0.04 0.14 0.06 94 1012.1
20260509065004 48 109 0.0 1.7 0.04 0.14 0.06 94 1012.1
20260509064521 48 109 0.0 1.7 0.04 0.14 0.06 94 1012.3
20260509064008 48 109 0.0 0.9 0.03 0.13 0.05 94 1012.4
20260509063510 48 109 0.0 0.0 0.03 0.13 0.05 94 1012.4
20260509063021 48 109 0.0 0.0 0.04 0.13 0.05 94 1012.4
20260509062509 48 160 0.0 0.0 0.03 0.12 0.04 94 1012.5
20260509062011 48 160 0.0 0.0 0.02 0.11 0.03 94 1012.7
20260509061524 48 164 0.0 1.7 0.02 0.11 0.03 94 1012.8
20260509061008 48 164 0.0 1.7 0.02 0.11 0.03 94 1012.8
20260509060509 48 164 0.0 1.7 0.01 0.10 0.02 94 1012.8
20260509060024 48 164 0.0 1.7 0.01 0.10 0.02 94 1012.8
20260509055505 48 164 0.0 1.7 0.01 0.10 0.02 94 1012.8
20260509055007 48 164 0.0 1.7 0.01 0.10 0.02 93 1012.8
20260509054513 48 164 0.0 1.7 0.02 0.10 0.02 93 1012.8
20260509054005 48 178 0.0 1.7 0.02 0.10 0.02 93 1012.7
20260509053505 48 307 0.0 1.7 0.02 0.10 0.02 93 1012.7
20260509053029 48 307 0.0 1.7 0.01 0.09 0.01 93 1012.6
20260509052508 48 307 0.0 1.7 0.01 0.09 0.01 93 1012.7
20260509052013 48 307 0.0 1.7 0.01 0.09 0.01 93 1012.7
20260509051503 48 307 0.0 1.7 0.01 0.09 0.01 93 1012.7
20260509051003 48 229 0.0 1.7 0.01 0.09 0.01 93 1012.8
20260509050503 48 229 0.0 1.7 0.01 0.09 0.01 93 1013.0
20260509050007 48 229 0.0 1.7 0.01 0.09 0.01 93 1013.0
20260509045503 48 217 0.0 1.7 0.01 0.09 0.01 93 1013.0